Flag for Niger Weather past 2 weeks in Niamey, Niger

Now
90 °F

Passing clouds.


Feels Like: 92 °F
Forecast: 75 / 91 °F
Wind: 8 mph from Southwest

Location: Niamey-Aero

Current Time: Sep 2, 2014 at 6:20:28 PM

Latest Report: Sep 2, 2014 at 5:00 PM


Visibility: N/A

Pressure: 29.86 "Hg

Humidity: 46%

Dew point: 66 °F

Location of NiameyLocation

Historic Weather in Niamey — Graph

°F

Niamey temperature yesterday

Maximum temperature yesterday: 97 °F (at 3:00 PM)
Minimum temperature yesterday: 77 °F (at 10:00 PM)
Average temperature yesterday: 84 °F

Past Weeks' High & Low Weather Summary

 TemperatureHumidityPressure
High104 °F (Aug 29, 4:00 PM)100% (Aug 22, 3:00 PM)30.01 "Hg (Aug 22, 3:00 PM)
Low70 °F (Aug 22, 3:00 PM)21% (Aug 29, 4:00 PM)29.71 "Hg (Aug 29, 4:00 PM)
Average84 °F66%29.88 "Hg
* Reported Aug 18 5:00 PM — Sep 2 5:00 PM, Niamey, Weather by CustomWeather, © 2014

Note: Actual official high and low records may vary slightly from our data, if they occured in-between our weather recording intervals... More about our weather records

Advertising

Niamey weather history for previous 24 hours

 ConditionsComfort  
Time TempWeatherWind HumidityBarometerVisibility
5:00 PM
Sep 2
90 °FPassing clouds.8 mph46%29.86 "HgN/A
4:00 PM88 °FPassing clouds.8 mph52%29.86 "HgN/A
3:00 PM90 °FPassing clouds.7 mph46%29.86 "HgN/A
2:00 PM90 °FScattered clouds.7 mph46%29.89 "HgN/A
1:00 PM88 °FPartly sunny.7 mph49%29.92 "HgN/A
12:00 PM84 °FPartly sunny.7 mph58%29.95 "HgN/A
11:00 AM82 °FPartly sunny.3 mph62%29.95 "HgN/A
10:00 AM82 °FScattered clouds.1 mph62%29.95 "HgN/A
9:00 AM79 °FScattered clouds.1 mph74%29.95 "HgN/A
8:00 AM77 °FScattered clouds.2 mph79%29.92 "HgN/A
7:00 AM75 °FScattered clouds.3 mph83%29.89 "HgN/A
6:00 AM75 °FPassing clouds.3 mph83%29.89 "HgN/A
5:00 AM75 °FClear.3 mph83%29.86 "Hg10 mi
4:00 AM75 °FClear.5 mph83%29.86 "Hg10 mi
3:00 AM77 °FClear.6 mph79%29.86 "Hg10 mi
2:00 AM77 °FClear.7 mph79%29.89 "Hg10 mi
1:00 AM77 °FClear.7 mph79%29.89 "Hg10 mi
12:00 AM77 °FClear.8 mph79%29.89 "Hg10 mi
11:00 PM
Sep 1
77 °FPassing clouds.8 mph79%29.92 "HgN/A
10:00 PM77 °FPassing clouds.13 mph79%29.89 "HgN/A
9:00 PM79 °FPassing clouds.12 mph79%29.89 "HgN/A
8:00 PM81 °FPassing clouds.16 mph74%29.83 "HgN/A
7:00 PM88 °FPassing clouds.8 mph55%29.80 "HgN/A
6:00 PM91 °FPassing clouds.9 mph44%29.77 "HgN/A
Weather by CustomWeather, © 2014

See weather overviewHow to use our weather pages